VCTRY47 KNTU-KNTU

Flight info

Callsign VCTRY47
Flight time 1h 12m
Altitude 17000
Route CANOB KW36A HOBOH ZIBUT KW45A IMELL KW36A ZINEP ROWZO HUGEE HENIP WENID
Aircraft F18/H-A/C

Departure

Time 2026-04-23 06:31
Airport Oceana Naval Air Station (KNTU)

Arrival

Time 2026-04-23 07:43
Airport Oceana Naval Air Station (KNTU)
Time Latitude Longitude Altitude Speed Heading
2026-04-23 06:23 36.81388 -76.03442 30 ft 0 kts 45°
2026-04-23 06:26 36.81390 -76.03440 30 ft 5 kts 45°
2026-04-23 06:26 36.81432 -76.03441 30 ft 12 kts 338°
2026-04-23 06:27 36.81486 -76.03504 30 ft 6 kts 313°
2026-04-23 06:27 36.81504 -76.03527 30 ft 4 kts 314°
2026-04-23 06:27 36.81541 -76.03584 30 ft 13 kts 310°
2026-04-23 06:27 36.81614 -76.03615 30 ft 15 kts 49°
2026-04-23 06:28 36.81711 -76.03504 30 ft 23 kts 42°
2026-04-23 06:28 36.81851 -76.03348 30 ft 31 kts 42°
2026-04-23 06:28 36.82027 -76.03150 30 ft 34 kts 42°
2026-04-23 06:28 36.82222 -76.02935 30 ft 36 kts 43°
2026-04-23 06:29 36.82346 -76.02792 30 ft 14 kts 42°
2026-04-23 06:29 36.82442 -76.02684 30 ft 23 kts 41°
2026-04-23 06:29 36.82539 -76.02576 30 ft 0 kts 41°
2026-04-23 06:29 36.82558 -76.02555 30 ft 8 kts 41°
2026-04-23 06:30 36.82623 -76.02483 30 ft 17 kts 41°
2026-04-23 06:30 36.82731 -76.02360 30 ft 22 kts 42°
2026-04-23 06:30 36.82832 -76.02254 30 ft 9 kts
2026-04-23 06:30 36.82883 -76.02298 30 ft 13 kts 311°
2026-04-23 06:31 36.82861 -76.02389 30 ft 27 kts 221°
2026-04-23 06:31 36.82322 -76.03000 55 ft 179 kts 224°
2026-04-23 06:31 36.81153 -76.04382 294 ft 253 kts 224°
2026-04-23 06:31 36.79683 -76.05499 654 ft 252 kts 194°
2026-04-23 06:32 36.77935 -76.05446 1054 ft 256 kts 170°
2026-04-23 06:32 36.76173 -76.05049 1479 ft 259 kts 171°
2026-04-23 06:32 36.74396 -76.04662 1901 ft 258 kts 173°
2026-04-23 06:32 36.72747 -76.04299 2286 ft 261 kts 173°
2026-04-23 06:33 36.70958 -76.03906 2714 ft 260 kts 174°
2026-04-23 06:33 36.69163 -76.03513 3147 ft 264 kts 174°
2026-04-23 06:33 36.67346 -76.03115 3584 ft 266 kts 174°
2026-04-23 06:33 36.65520 -76.02713 4026 ft 267 kts 174°
2026-04-23 06:34 36.63678 -76.02311 4464 ft 270 kts 175°
2026-04-23 06:34 36.61819 -76.01905 4908 ft 272 kts 175°
2026-04-23 06:34 36.59940 -76.01497 5351 ft 276 kts 175°
2026-04-23 06:34 36.58043 -76.01087 5790 ft 277 kts 175°
2026-04-23 06:35 36.56132 -76.00674 6236 ft 281 kts 175°
2026-04-23 06:35 36.54202 -76.00258 6694 ft 282 kts 175°
2026-04-23 06:35 36.52263 -75.99841 7145 ft 285 kts 175°
2026-04-23 06:35 36.50297 -75.99480 7578 ft 284 kts 185°
2026-04-23 06:36 36.48342 -75.99670 8056 ft 282 kts 191°
2026-04-23 06:36 36.46381 -75.99903 8512 ft 285 kts 191°
2026-04-23 06:36 36.44396 -76.00139 8976 ft 286 kts 190°
2026-04-23 06:36 36.42401 -76.00377 9442 ft 291 kts 191°
2026-04-23 06:37 36.40378 -76.00620 9902 ft 292 kts 191°
2026-04-23 06:37 36.38336 -76.00869 10373 ft 298 kts 191°
2026-04-23 06:37 36.36258 -76.01122 10447 ft 299 kts 191°
2026-04-23 06:37 36.34188 -76.01373 10441 ft 299 kts 191°
2026-04-23 06:38 36.32114 -76.01624 10477 ft 300 kts 191°
2026-04-23 06:38 36.30039 -76.01877 10465 ft 300 kts 191°
2026-04-23 06:38 36.27965 -76.02130 10449 ft 299 kts 191°
2026-04-23 06:38 36.25898 -76.02381 10459 ft 299 kts 191°
2026-04-23 06:39 36.23825 -76.02634 10465 ft 299 kts 191°
2026-04-23 06:39 36.21751 -76.02887 10459 ft 299 kts 191°
2026-04-23 06:39 36.19678 -76.03140 10457 ft 299 kts 191°
2026-04-23 06:39 36.17606 -76.03393 10462 ft 299 kts 191°
2026-04-23 06:40 36.15534 -76.03645 10461 ft 299 kts 191°
2026-04-23 06:40 36.13456 -76.03872 10476 ft 301 kts 189°
2026-04-23 06:40 36.11361 -76.03917 10498 ft 304 kts 183°
2026-04-23 06:40 36.09250 -76.03613 10303 ft 308 kts 175°
2026-04-23 06:41 36.07173 -76.02979 9977 ft 309 kts 165°
2026-04-23 06:41 36.05185 -76.02006 9422 ft 304 kts 163°
2026-04-23 06:41 36.03212 -76.01081 9468 ft 304 kts 163°
2026-04-23 06:41 36.01226 -76.00171 9600 ft 305 kts 163°
2026-04-23 06:42 35.99245 -75.99203 9635 ft 306 kts 164°
2026-04-23 06:42 35.97241 -75.98371 9540 ft 303 kts 167°
2026-04-23 06:42 35.95207 -75.97713 9249 ft 300 kts 172°
2026-04-23 06:42 35.93216 -75.96991 8945 ft 300 kts 164°
2026-04-23 06:43 35.91287 -75.96013 8626 ft 300 kts 163°
2026-04-23 06:43 35.89362 -75.95057 8319 ft 299 kts 162°
2026-04-23 06:43 35.87495 -75.93897 8062 ft 302 kts 154°
2026-04-23 06:43 35.85669 -75.92589 7304 ft 305 kts 154°
2026-04-23 06:44 35.83861 -75.91272 6492 ft 299 kts 155°
2026-04-23 06:44 35.82053 -75.90069 5783 ft 292 kts 157°
2026-04-23 06:44 35.81996 -75.90032 5754 ft 292 kts 157°
2026-04-23 06:49 35.81429 -75.89670 5471 ft 294 kts 156°
2026-04-23 06:49 35.79683 -75.88430 4591 ft 292 kts 154°
2026-04-23 06:49 35.77923 -75.87221 3732 ft 286 kts 158°
2026-04-23 06:49 35.76212 -75.86084 3215 ft 276 kts 153°
2026-04-23 06:50 35.74634 -75.84820 3356 ft 267 kts 150°
2026-04-23 06:50 35.73150 -75.83461 4424 ft 268 kts 146°
2026-04-23 06:50 35.71581 -75.81923 5863 ft 316 kts 145°
2026-04-23 06:50 35.69769 -75.80062 7782 ft 357 kts 142°
2026-04-23 06:51 35.67844 -75.78023 10130 ft 365 kts 134°
2026-04-23 06:51 35.67568 -75.75304 11461 ft 329 kts 79°
2026-04-23 06:51 35.66549 -75.73132 10507 ft 326 kts 173°
2026-04-23 06:51 35.64642 -75.74317 10754 ft 347 kts 253°
2026-04-23 06:52 35.65015 -75.77280 12597 ft 397 kts 309°
2026-04-23 06:52 35.67358 -75.79288 11336 ft 434 kts 327°
2026-04-23 06:52 35.70066 -75.81458 8823 ft 503 kts 323°
2026-04-23 06:52 35.73154 -75.84065 6314 ft 570 kts 324°
2026-04-23 06:53 35.76721 -75.86187 6377 ft 577 kts 340°
2026-04-23 06:53 35.80656 -75.87281 6243 ft 563 kts 348°
2026-04-23 06:53 35.83993 -75.88539 8900 ft 439 kts 314°
2026-04-23 06:53 35.84505 -75.91534 13053 ft 390 kts 245°
2026-04-23 06:54 35.85353 -75.94174 13882 ft 435 kts 359°
2026-04-23 06:54 35.86995 -75.90985 11843 ft 589 kts 107°
2026-04-23 06:54 35.84030 -75.87449 10192 ft 612 kts 150°
2026-04-23 06:54 35.80402 -75.84733 9226 ft 611 kts 152°
2026-04-23 06:55 35.76891 -75.82327 7575 ft 546 kts 154°
2026-04-23 06:55 35.73643 -75.80301 6130 ft 502 kts 157°
2026-04-23 06:55 35.70649 -75.78599 5814 ft 442 kts 160°
2026-04-23 06:55 35.68829 -75.77757 5805 ft 403 kts 168°
2026-04-23 06:56 35.66189 -75.77127 6095 ft 383 kts 171°
2026-04-23 06:56 35.63516 -75.76604 7336 ft 394 kts 171°
2026-04-23 06:56 35.60804 -75.75860 8687 ft 405 kts 138°
2026-04-23 06:56 35.59156 -75.73163 8318 ft 441 kts 177°
2026-04-23 06:57 35.57397 -75.75866 7389 ft 486 kts 287°
2026-04-23 06:57 35.59873 -75.78220 9032 ft 475 kts 336°
2026-04-23 06:57 35.63010 -75.79806 8648 ft 494 kts 338°
2026-04-23 06:57 35.66237 -75.81369 7590 ft 504 kts 339°
2026-04-23 06:58 35.69531 -75.82918 6167 ft 512 kts 340°
2026-04-23 06:58 35.72827 -75.84444 4214 ft 479 kts 341°
2026-04-23 06:58 35.76138 -75.85734 1756 ft 525 kts 345°
2026-04-23 06:58 35.79648 -75.86779 3484 ft 515 kts 347°
2026-04-23 06:59 35.83187 -75.87741 5211 ft 525 kts 344°
2026-04-23 06:59 35.86535 -75.89543 6831 ft 528 kts 334°
2026-04-23 06:59 35.89614 -75.91813 8857 ft 504 kts 298°
2026-04-23 06:59 35.90716 -75.95482 10661 ft 452 kts 342°
2026-04-23 07:00 35.92402 -75.93770 11892 ft 349 kts 120°
2026-04-23 07:00 35.90452 -75.92347 12530 ft 339 kts 144°
2026-04-23 07:00 35.88245 -75.90859 11809 ft 380 kts 161°
2026-04-23 07:00 35.85771 -75.89894 11341 ft 371 kts 162°
2026-04-23 07:01 35.83278 -75.88871 9977 ft 386 kts 160°
2026-04-23 07:01 35.80627 -75.87845 7856 ft 415 kts 165°
2026-04-23 07:01 35.77738 -75.86937 5915 ft 437 kts 165°
2026-04-23 07:01 35.74800 -75.86040 5537 ft 428 kts 165°
2026-04-23 07:02 35.72006 -75.84949 5700 ft 416 kts 160°
2026-04-23 07:02 35.69354 -75.83641 5826 ft 407 kts 155°
2026-04-23 07:02 35.66904 -75.82186 6739 ft 372 kts 153°
2026-04-23 07:02 35.64696 -75.80848 7977 ft 339 kts 153°
2026-04-23 07:03 35.62731 -75.79341 9201 ft 340 kts 115°
2026-04-23 07:03 35.62606 -75.76509 9342 ft 362 kts 120°
2026-04-23 07:03 35.60236 -75.75313 9927 ft 438 kts 194°
2026-04-23 07:03 35.58474 -75.78027 12292 ft 431 kts 280°
2026-04-23 07:04 35.60391 -75.80562 15131 ft 432 kts 347°
2026-04-23 07:04 35.63278 -75.81582 14171 ft 429 kts 345°
2026-04-23 07:04 35.66151 -75.82559 12018 ft 430 kts 345°
2026-04-23 07:04 35.69030 -75.83558 9929 ft 429 kts 344°
2026-04-23 07:05 35.71882 -75.84560 7867 ft 424 kts 345°
2026-04-23 07:05 35.74711 -75.85331 6457 ft 405 kts 350°
2026-04-23 07:05 35.77421 -75.85736 5682 ft 370 kts 356°
2026-04-23 07:05 35.79857 -75.85782 6005 ft 334 kts
2026-04-23 07:06 35.80554 -75.85765 6400 ft 323 kts
2026-04-23 07:06 35.80654 -75.85763 6457 ft 321 kts
2026-04-23 07:06 35.82755 -75.85772 7954 ft 279 kts
2026-04-23 07:06 35.84676 -75.85786 9748 ft 276 kts 359°
2026-04-23 07:07 35.86626 -75.85979 10916 ft 273 kts 322°
2026-04-23 07:07 35.87750 -75.87588 10852 ft 260 kts
2026-04-23 07:07 35.88570 -75.85627 9363 ft 362 kts 111°
2026-04-23 07:07 35.86377 -75.84265 9626 ft 423 kts 182°
2026-04-23 07:08 35.83215 -75.84401 8101 ft 483 kts 181°
2026-04-23 07:08 35.79722 -75.84751 6178 ft 523 kts 186°
2026-04-23 07:08 35.76118 -75.85291 5989 ft 519 kts 187°
2026-04-23 07:08 35.72589 -75.86055 5860 ft 510 kts 207°
2026-04-23 07:09 35.69663 -75.88162 4973 ft 525 kts 209°
2026-04-23 07:09 35.66616 -75.89928 6369 ft 532 kts 200°
2026-04-23 07:09 35.63094 -75.91359 7935 ft 536 kts 196°
2026-04-23 07:09 35.59483 -75.92544 9762 ft 537 kts 195°
2026-04-23 07:10 35.55828 -75.93430 11720 ft 538 kts 174°
2026-04-23 07:10 35.52579 -75.91434 12934 ft 541 kts 122°
2026-04-23 07:10 35.49467 -75.89650 12763 ft 527 kts 207°
2026-04-23 07:10 35.48603 -75.93082 15599 ft 447 kts 303°
2026-04-23 07:11 35.51168 -75.95197 15842 ft 468 kts 351°
2026-04-23 07:11 35.54283 -75.94480 15487 ft 461 kts 17°
2026-04-23 07:11 35.57454 -75.93238 13451 ft 492 kts 17°
2026-04-23 07:12 35.63641 -75.90843 10724 ft 437 kts 16°
2026-04-23 07:12 35.66460 -75.89823 9877 ft 404 kts 16°
2026-04-23 07:12 35.69027 -75.88872 9403 ft 368 kts 17°
2026-04-23 07:12 35.71367 -75.87983 8994 ft 336 kts 17°
2026-04-23 07:13 35.73497 -75.87153 8624 ft 310 kts 17°
2026-04-23 07:13 35.75633 -75.86303 8263 ft 334 kts 18°
2026-04-23 07:13 35.77874 -75.85589 8263 ft 343 kts
2026-04-23 07:13 35.80201 -75.86001 8297 ft 341 kts 339°
2026-04-23 07:14 35.82164 -75.87602 8305 ft 342 kts 314°
2026-04-23 07:14 35.83394 -75.90096 8283 ft 344 kts 289°
2026-04-23 07:14 35.83643 -75.93023 8290 ft 347 kts 264°
2026-04-23 07:14 35.83282 -75.95964 8303 ft 347 kts 262°
2026-04-23 07:15 35.82858 -75.98890 8263 ft 348 kts 254°
2026-04-23 07:15 35.81704 -76.01490 8287 ft 350 kts 229°
2026-04-23 07:15 35.79762 -76.03266 8308 ft 352 kts 204°
2026-04-23 07:15 35.77381 -76.03898 8285 ft 352 kts 179°
2026-04-23 07:16 35.75011 -76.03250 8287 ft 352 kts 154°
2026-04-23 07:16 35.73079 -76.01448 8293 ft 350 kts 129°
2026-04-23 07:16 35.71924 -75.98843 8305 ft 348 kts 108°
2026-04-23 07:16 35.71427 -75.95950 8280 ft 346 kts 91°
2026-04-23 07:17 35.71404 -75.92986 8295 ft 346 kts 89°
2026-04-23 07:17 35.71386 -75.90021 8284 ft 346 kts 89°
2026-04-23 07:17 35.71366 -75.87051 8290 ft 346 kts 89°
2026-04-23 07:17 35.71344 -75.84083 8292 ft 346 kts 89°
2026-04-23 07:18 35.71319 -75.81086 8295 ft 378 kts 90°
2026-04-23 07:18 35.71289 -75.77834 8290 ft 378 kts 90°
2026-04-23 07:18 35.71259 -75.74617 8805 ft 379 kts 90°
2026-04-23 07:18 35.71632 -75.71417 9373 ft 379 kts 68°
2026-04-23 07:19 35.72971 -75.68676 9999 ft 374 kts 43°
2026-04-23 07:19 35.75040 -75.66844 10649 ft 363 kts 18°
2026-04-23 07:19 35.77451 -75.66223 11307 ft 348 kts 353°
2026-04-23 07:19 35.79764 -75.66856 12003 ft 339 kts 335°
2026-04-23 07:20 35.81968 -75.67919 12692 ft 341 kts 335°
2026-04-23 07:20 35.84169 -75.68987 13371 ft 345 kts 335°
2026-04-23 07:20 35.86416 -75.70079 14018 ft 351 kts 335°
2026-04-23 07:20 35.88681 -75.71182 13872 ft 348 kts 335°
2026-04-23 07:21 35.90580 -75.72107 13918 ft 348 kts 335°
2026-04-23 07:21 35.91898 -75.72750 13941 ft 348 kts 335°
2026-04-23 07:21 35.94154 -75.73856 13918 ft 348 kts 334°
2026-04-23 07:21 35.96376 -75.75023 13915 ft 347 kts 333°
2026-04-23 07:22 35.98598 -75.76216 13922 ft 348 kts 333°
2026-04-23 07:22 36.00844 -75.77349 13919 ft 348 kts 335°
2026-04-23 07:22 36.03098 -75.78439 13920 ft 348 kts 336°
2026-04-23 07:22 36.05499 -75.78994 13909 ft 358 kts 357°
2026-04-23 07:23 36.07986 -75.78529 13941 ft 364 kts
2026-04-23 07:23 36.10435 -75.77901 13919 ft 364 kts
2026-04-23 07:23 36.12911 -75.77264 13909 ft 364 kts
2026-04-23 07:23 36.15402 -75.76621 13926 ft 364 kts
2026-04-23 07:24 36.17881 -75.75978 13920 ft 364 kts
2026-04-23 07:24 36.20363 -75.75332 13918 ft 364 kts
2026-04-23 07:24 36.22845 -75.74683 13922 ft 364 kts
2026-04-23 07:24 36.25325 -75.74031 13920 ft 364 kts
2026-04-23 07:25 36.27766 -75.73386 13919 ft 364 kts
2026-04-23 07:25 36.30240 -75.72730 13920 ft 364 kts
2026-04-23 07:25 36.32601 -75.72101 13920 ft 364 kts
2026-04-23 07:25 36.35198 -75.71406 13920 ft 364 kts
2026-04-23 07:26 36.37681 -75.70737 13918 ft 364 kts
2026-04-23 07:26 36.40162 -75.70064 13921 ft 365 kts
2026-04-23 07:26 36.42648 -75.69386 13920 ft 365 kts
2026-04-23 07:26 36.45120 -75.68709 13920 ft 365 kts
2026-04-23 07:27 36.47612 -75.68021 13920 ft 365 kts
2026-04-23 07:27 36.50065 -75.67339 13921 ft 365 kts
2026-04-23 07:27 36.52574 -75.66637 13913 ft 366 kts
2026-04-23 07:27 36.55025 -75.65945 13923 ft 365 kts
2026-04-23 07:28 36.57509 -75.65239 13921 ft 366 kts
2026-04-23 07:28 36.59985 -75.64530 13919 ft 366 kts
2026-04-23 07:28 36.62475 -75.63810 13921 ft 366 kts
2026-04-23 07:28 36.64953 -75.63086 13922 ft 366 kts
2026-04-23 07:29 36.67425 -75.62357 13920 ft 366 kts
2026-04-23 07:29 36.69910 -75.61618 13920 ft 366 kts
2026-04-23 07:29 36.72389 -75.60871 13920 ft 366 kts
2026-04-23 07:29 36.74866 -75.60117 13920 ft 367 kts
2026-04-23 07:30 36.77352 -75.59350 13920 ft 367 kts
2026-04-23 07:30 36.79826 -75.58577 13917 ft 367 kts
2026-04-23 07:30 36.82302 -75.57791 13919 ft 367 kts 10°
2026-04-23 07:30 36.84781 -75.56993 13921 ft 367 kts 10°
2026-04-23 07:31 36.87218 -75.56195 13920 ft 367 kts 10°
2026-04-23 07:31 36.89693 -75.55369 13920 ft 367 kts 11°
2026-04-23 07:31 36.92167 -75.54527 13922 ft 368 kts 11°
2026-04-23 07:31 36.94635 -75.53670 13919 ft 368 kts 11°
2026-04-23 07:32 36.97096 -75.52795 13919 ft 368 kts 12°
2026-04-23 07:32 36.99569 -75.51893 13922 ft 368 kts 12°
2026-04-23 07:32 37.01995 -75.50992 13920 ft 368 kts 12°
2026-04-23 07:32 37.04486 -75.50316 13900 ft 363 kts 359°
2026-04-23 07:33 37.06936 -75.50752 13930 ft 355 kts 336°
2026-04-23 07:33 37.08977 -75.52401 13923 ft 350 kts 313°
2026-04-23 07:33 37.10255 -75.54971 13918 ft 351 kts 289°
2026-04-23 07:33 37.10690 -75.57971 12934 ft 355 kts 270°
2026-04-23 07:34 37.10325 -75.61072 11081 ft 363 kts 261°
2026-04-23 07:34 37.09793 -75.63799 9411 ft 289 kts 255°
2026-04-23 07:34 37.09047 -75.65921 8239 ft 247 kts 246°
2026-04-23 07:34 37.08249 -75.67802 7559 ft 242 kts 246°
2026-04-23 07:35 37.07427 -75.69612 6913 ft 236 kts 242°
2026-04-23 07:35 37.06561 -75.71330 6282 ft 231 kts 238°
2026-04-23 07:35 37.05908 -75.73075 5748 ft 215 kts 255°
2026-04-23 07:35 37.05502 -75.74887 5095 ft 226 kts 258°
2026-04-23 07:36 37.05120 -75.76882 4230 ft 247 kts 256°
2026-04-23 07:36 37.04624 -75.79026 3348 ft 265 kts 254°
2026-04-23 07:36 37.04191 -75.81259 2619 ft 258 kts 256°
2026-04-23 07:36 37.03659 -75.83354 1968 ft 244 kts 245°
2026-04-23 07:37 37.02938 -75.85149 1628 ft 222 kts 243°
2026-04-23 07:37 37.02145 -75.86736 1174 ft 210 kts 230°
2026-04-23 07:37 37.01002 -75.88019 569 ft 240 kts 224°
2026-04-23 07:37 36.99930 -75.89852 397 ft 303 kts 240°
2026-04-23 07:38 36.98595 -75.92260 437 ft 337 kts 228°
2026-04-23 07:38 36.97031 -75.94251 509 ft 306 kts 224°
2026-04-23 07:38 36.95514 -75.95952 551 ft 280 kts 223°
2026-04-23 07:38 36.94610 -75.97091 583 ft 265 kts 226°
2026-04-23 07:39 36.93372 -75.98701 697 ft 242 kts 226°
2026-04-23 07:39 36.92321 -76.00097 1096 ft 200 kts 226°
2026-04-23 07:39 36.91480 -76.01116 1292 ft 129 kts 224°
2026-04-23 07:40 36.90864 -76.01814 1014 ft 129 kts 220°
2026-04-23 07:40 36.90188 -76.02506 1357 ft 129 kts 221°
2026-04-23 07:40 36.89496 -76.03248 1457 ft 131 kts 220°
2026-04-23 07:40 36.89014 -76.03705 1496 ft 131 kts 219°
2026-04-23 07:41 36.88480 -76.04271 1573 ft 124 kts 224°
2026-04-23 07:41 36.88386 -76.04372 1584 ft 126 kts 223°
2026-04-23 07:42 36.87693 -76.05088 1339 ft 132 kts 221°
2026-04-23 07:42 36.86940 -76.05744 1259 ft 135 kts 208°
2026-04-23 07:42 36.86036 -76.06015 959 ft 137 kts 182°
2026-04-23 07:42 36.85109 -76.05774 628 ft 138 kts 161°
2026-04-23 07:43 36.84307 -76.05095 331 ft 139 kts 139°
2026-04-23 07:43 36.83627 -76.04249 124 ft 140 kts 135°
2026-04-23 07:43 36.82979 -76.03408 30 ft 108 kts 135°
2026-04-23 07:43 36.82772 -76.03148 30 ft 27 kts 136°
2026-04-23 07:44 36.82671 -76.03029 30 ft 15 kts 135°
2026-04-23 07:44 36.82576 -76.02910 30 ft 15 kts 134°
2026-04-23 07:44 36.82502 -76.02836 30 ft 17 kts 181°
2026-04-23 07:44 36.82391 -76.02843 30 ft 17 kts 133°
2026-04-23 07:45 36.82321 -76.02821 30 ft 13 kts 218°
2026-04-23 07:45 36.82263 -76.02885 30 ft 10 kts 222°
2026-04-23 07:45 36.82158 -76.03003 30 ft 28 kts 222°
2026-04-23 07:45 36.82041 -76.03135 30 ft 18 kts 222°
2026-04-23 07:46 36.81968 -76.03217 30 ft 13 kts 222°
2026-04-23 07:46 36.81868 -76.03317 30 ft 11 kts 167°
2026-04-23 07:46 36.81793 -76.03309 30 ft 16 kts 221°
2026-04-23 07:46 36.81742 -76.03292 30 ft 24 kts 133°
2026-04-23 07:47 36.81662 -76.03257 30 ft 7 kts 225°
2026-04-23 07:47 36.81659 -76.03260 30 ft 0 kts 225°